Theta_e
350 349 346 349 351 350 353 353 353 353 353 353 352 352 352 350 352 352 353 352 350 353 354 353 353 351 348 347 350 351 351 352 346 343 349 346 344 345 346 348 348 350 349
348 345 346 352 352 351 350 352 351 351 352 350 351 353 353 353 353 350 348 350 353 353 353 352 353 351 345 343 345 347 350 347 351 351 350 350 349 345 346 351 350 348 350
349 347 347 350 352 350 350 350 350 352 353 352 352 353 353 353 353 353 353 354 354 354 353 352 351 351 344 343 341 345 345 345 347 348 342 342 348 350 350 349 348 348 348
351 349 348 351 348 350 351 349 350 353 353 352 352 352 351 351 354 354 354 354 354 354 353 353 353 351 335 336 339 343 345 346 347 348 346 343 343 347 348 343 347 346 342
351 347 350 347 350 350 351 350 349 348 348 346 349 352 353 353 354 354 354 354 353 352 350 350 348 341 338 333 336 341 344 345 348 351 349 344 342 348 344 345 346 349 339
348 350 350 350 350 350 350 347 346 349 351 349 347 349 351 350 353 354 353 352 351 350 348 349 348 339 334 339 342 345 346 348 349 346 345 341 343 349 350 350 349 343 338
350 351 351 351 348 348 344 345 348 349 350 353 352 348 346 344 345 344 344 344 343 342 343 344 342 334 331 342 344 344 347 349 348 346 346 342 337 339 342 346 343 339 339
352 351 351 349 347 345 343 349 347 348 350 353 350 340 338 340 340 339 338 337 335 334 335 334 331 326 330 341 341 344 346 348 345 344 335 341 339 335 336 345 343 339 347
351 350 349 349 352 342 341 341 341 338 341 341 333 333 336 336 336 336 335 334 334 334 334 332 331 328 332 338 339 341 342 344 341 337 327 330 333 332 330 331 337 342 337
351 349 350 349 347 336 338 336 337 337 343 343 339 337 337 337 336 335 335 336 336 336 337 337 335 333 334 337 339 340 341 343 342 339 329 329 330 329 329 330 331 334 335
351 349 350 348 344 336 335 338 344 346 347 349 349 349 349 348 347 344 343 342 342 341 342 342 343 340 335 335 337 338 340 342 339 333 331 330 329 329 329 329 330 331 332
352 347 350 350 345 339 337 344 347 351 354 354 350 352 353 352 349 348 349 348 348 348 350 350 349 350 341 347 345 343 344 347 336 338 334 333 332 331 331 331 330 330 331
352 351 345 351 352 348 339 343 348 353 351 353 353 350 351 352 350 351 350 352 351 351 353 351 354 353 347 345 351 349 349 347 337 343 343 341 339 337 336 335 334 332 332
350 349 341 350 351 348 351 345 347 351 346 354 351 350 349 350 354 351 352 350 354 343 338 352 353 352 342 345 341 336 347 346 339 341 343 344 344 344 344 342 341 339 337
349 348 342 348 348 349 351 350 348 348 345 352 346 337 337 345 351 352 350 350 352 350 351 353 354 346 342 344 343 345 344 341 343 344 339 342 341 338 339 342 344 343 343
349 346 352 351 351 348 347 348 345 339 340 348 353 344 347 346 349 352 348 351 350 343 347 350 351 348 340 340 340 341 338 336 341 349 344 338 342 345 343 342 342 342 343
349 348 349 352 350 350 347 350 346 347 347 349 354 350 342 345 347 350 343 352 349 347 348 348 351 347 336 337 344 336 341 341 343 346 344 348 346 345 346 346 345 344 343
352 351 348 351 350 349 347 346 350 351 347 351 351 347 340 340 350 348 349 351 348 343 344 352 352 352 351 346 343 341 336 345 346 346 342 346 348 346 343 339 348 347 345
353 352 349 350 351 348 349 351 353 351 344 348 350 349 347 344 348 346 345 348 346 341 345 355 352 351 348 344 350 349 341 348 350 349 348 348 347 348 341 346 349 348 349
351 352 347 347 350 349 352 354 350 350 349 351 350 351 349 347 346 348 345 347 349 345 348 348 348 349 349 347 350 349 350 348 348 346 343 341 345 349 350 352 352 352 352
350 350 348 350 349 350 351 353 352 352 352 351 352 351 352 351 349 352 350 351 352 354 352 350 348 346 348 350 350 351 351 347 347 348 345 338 343 348 350 353 353 354 351
352 352 348 354 348 351 352 349 353 353 352 352 349 350 350 351 350 354 353 351 356 354 352 350 355 349 349 349 348 351 346 347 347 349 346 343 347 347 347 348 354 355 352
350 349 348 351 348 349 351 352 353 353 354 352 352 350 349 345 348 351 353 355 352 352 350 354 354 355 354 354 351 351 346 347 347 347 344 344 342 344 344 344 344 348 353
352 352 353 350 350 348 350 353 351 352 352 352 350 349 350 350 350 349 348 352 351 353 354 353 355 353 353 353 354 355 353 354 349 346 347 346 347 346 345 343 342 345 340
352 351 351 351 350 349 349 351 352 351 353 352 349 346 343 343 343 349 348 346 350 351 354 353 352 353 354 355 356 355 354 354 353 351 349 349 347 345 343 342 342 343 342
352 353 354 355 354 354 352 350 352 352 351 350 349 348 349 349 345 345 343 342 341 348 347 350 351 351 351 353 354 356 357 357 355 353 346 349 348 352 348 347 343 342 342
Wind_Speed
9 12 12 14 15 18 17 16 17 17 18 18 19 19 19 19 20 19 19 18 18 18 16 16 17 17 17 18 18 18 17 18 18 19 19 19 17 16 18 17 17 16 16
15 14 14 15 17 18 17 17 17 17 17 17 18 18 18 18 18 18 18 19 18 17 16 16 16 16 16 17 17 18 17 17 18 19 18 18 17 19 19 17 17 16 15
18 17 17 16 17 17 17 16 16 15 15 16 16 17 16 17 17 17 17 17 17 16 15 15 14 13 14 15 15 17 17 18 19 20 15 16 16 15 16 16 15 14 15
20 18 19 16 17 17 16 16 14 13 15 15 15 16 17 16 17 16 16 16 15 14 13 12 12 12 13 14 15 14 13 13 12 10 12 13 14 14 15 15 15 13 13
21 21 19 16 16 16 15 15 14 12 13 13 13 14 15 15 15 15 15 14 13 12 11 9 10 11 12 14 13 11 9 7 5 5 11 11 14 13 14 13 14 13 11
23 21 19 17 17 16 15 16 13 13 11 13 14 14 14 14 15 14 13 12 11 10 9 8 8 10 12 13 14 11 7 7 13 20 20 11 12 12 12 12 13 11 9
23 21 19 17 17 17 16 17 14 12 14 14 13 13 14 15 15 14 13 12 10 10 10 9 10 11 14 15 13 12 14 16 19 16 13 12 12 11 10 10 12 10 10
24 20 18 17 17 16 16 15 12 12 12 12 13 15 16 16 15 14 12 11 10 11 11 11 11 12 16 17 16 15 14 12 14 8 9 12 11 10 10 10 10 10 9
22 20 18 17 15 15 15 14 13 15 16 15 17 19 18 17 15 13 11 10 10 10 10 11 12 13 15 16 15 13 11 12 12 8 9 11 11 10 9 10 9 10 9
19 18 17 17 15 17 17 17 17 19 19 19 18 18 16 14 12 11 10 9 10 10 9 8 8 9 10 11 10 8 8 11 14 7 7 9 10 9 9 9 9 9 9
26 19 18 16 17 18 20 20 17 16 13 12 12 12 11 10 8 9 9 7 8 9 7 6 5 4 2 4 5 5 4 7 13 6 7 8 9 8 8 8 8 8 8
24 20 19 18 20 20 22 19 13 8 9 8 6 4 6 5 6 7 7 5 5 6 4 1 3 2 6 8 5 11 13 17 14 5 7 8 9 8 8 7 6 6 7
25 19 20 19 15 20 19 14 11 10 4 8 8 3 3 11 6 9 6 0 2 2 5 1 5 3 11 20 9 4 8 11 13 7 8 8 8 9 8 8 7 7 7
24 23 25 13 12 18 14 15 11 8 7 4 5 6 6 4 2 14 9 6 3 7 10 6 3 8 10 20 11 9 8 10 10 10 6 6 6 8 8 8 7 7 7
26 20 23 15 13 9 11 15 19 13 10 7 6 13 13 5 4 16 9 11 15 10 10 8 15 13 6 5 1 8 11 8 9 8 9 8 8 6 7 7 8 9 9
25 23 20 17 12 12 15 17 13 6 9 9 4 3 9 6 11 12 8 11 11 3 4 11 10 17 13 9 9 8 12 3 4 10 14 15 11 9 11 12 13 13 12
24 21 21 16 10 8 10 11 7 3 12 7 14 4 6 3 5 8 1 4 3 2 6 18 9 12 7 14 9 8 7 15 10 17 12 12 11 16 13 12 15 15 16
28 25 19 15 13 8 13 12 4 6 8 15 16 10 4 3 2 6 7 7 6 5 6 13 14 8 2 8 27 15 1 21 25 12 16 8 8 13 17 13 16 16 17
30 24 24 18 15 12 13 6 2 3 6 11 16 15 9 5 3 8 6 6 9 9 6 7 8 6 6 5 13 11 11 14 13 17 21 4 9 11 11 10 17 18 17
28 23 22 21 20 15 11 7 5 2 7 5 2 14 11 8 6 7 8 6 10 7 8 7 11 12 9 9 17 17 13 15 9 17 11 3 11 13 9 12 11 14 16
26 23 23 19 24 20 15 12 10 8 3 2 6 11 7 2 5 4 10 10 11 10 6 10 12 11 12 13 18 18 5 13 6 5 11 9 15 6 14 15 15 13 11
28 25 24 17 27 20 14 13 5 3 5 3 3 5 11 8 5 11 9 11 9 13 11 11 16 9 9 14 14 15 3 9 8 11 16 19 15 9 10 11 19 17 18
31 26 26 21 22 19 15 11 8 5 1 3 5 3 7 8 9 7 10 11 11 14 12 12 14 9 10 12 15 6 3 3 8 15 18 16 19 18 20 21 19 17 21
32 33 29 25 22 18 18 8 6 5 1 4 6 3 5 2 6 6 11 15 13 11 14 15 15 15 14 16 15 15 19 12 3 5 8 16 19 21 17 18 14 14 16
31 34 32 30 25 20 19 12 4 5 3 2 5 7 7 5 3 8 13 21 15 7 11 12 15 17 16 16 19 21 22 25 22 3 4 10 20 22 22 23 21 19 20
31 31 28 23 23 17 16 13 10 5 2 3 2 2 3 5 7 7 5 15 14 10 11 16 17 18 19 19 21 20 21 15 14 14 4 11 15 27 23 23 22 20 19
Wind_Direction
126 117 108 104 97 96 96 94 93 94 93 93 92 90 92 93 94 96 98 101 103 98 99 100 100 102 105 105 105 105 105 105 108 109 106 103 102 101 109 90 98 95 101
129 124 110 110 104 102 99 95 92 94 96 96 97 95 95 96 96 102 104 105 104 102 98 100 102 104 107 108 105 107 107 110 113 111 108 101 98 96 106 105 102 108 103
125 122 116 112 106 104 102 99 96 98 99 100 101 100 100 99 100 102 105 107 109 106 104 105 105 107 113 114 114 112 109 108 112 104 96 104 103 102 102 105 108 108 107
125 123 118 115 111 107 101 100 99 100 100 101 103 103 107 108 107 109 109 109 110 108 107 112 115 112 112 123 124 120 121 124 134 135 107 107 110 109 109 111 112 112 113
128 124 120 120 111 106 104 102 98 102 102 102 111 112 109 111 111 115 113 112 114 112 113 116 117 115 120 128 134 128 117 109 107 146 160 127 120 111 113 114 120 115 103
127 125 125 120 116 112 107 105 109 104 104 107 113 117 117 118 121 120 120 118 116 114 112 114 119 119 126 134 136 126 119 107 97 137 136 127 124 119 125 120 115 114 111
132 128 126 122 118 116 116 110 108 107 105 124 117 119 121 122 122 123 123 122 120 117 114 112 116 122 132 139 130 117 106 99 126 137 136 136 125 135 134 127 125 126 125
131 131 129 124 120 117 117 114 119 114 114 126 127 123 123 122 124 124 123 121 118 114 113 114 117 123 136 139 130 125 121 96 140 128 125 132 132 137 143 138 135 138 139
132 136 129 125 124 115 115 115 117 114 112 115 113 112 117 121 121 120 120 118 115 114 113 117 117 122 136 141 138 136 130 114 138 117 121 132 136 140 144 145 148 147 151
132 132 134 132 131 120 114 116 118 117 116 114 113 117 119 118 115 116 115 121 121 115 111 107 107 126 139 153 162 146 130 116 156 137 118 130 139 142 145 146 152 158 161
142 145 143 136 135 122 122 124 125 121 114 109 115 120 123 135 129 119 118 122 127 126 119 88 78 94 136 182 196 223 255 149 167 143 128 134 138 141 142 146 158 164 175
144 148 153 152 138 127 131 130 130 119 102 104 141 192 180 175 155 142 112 124 144 86 74 64 178 145 18 334 283 302 322 328 189 121 129 136 141 146 149 155 165 178 190
152 158 161 156 171 157 157 141 133 122 124 135 75 82 270 254 216 218 203 294 129 86 13 293 242 169 13 18 340 308 324 352 218 140 140 143 149 150 156 162 171 185 197
157 159 163 167 175 177 188 180 173 147 150 83 68 76 28 114 289 244 274 304 152 71 108 36 299 134 55 347 333 289 27 30 205 212 160 176 173 168 164 169 176 194 205
162 164 165 168 171 179 129 151 193 160 154 105 80 110 144 243 32 27 16 10 124 52 27 19 96 97 122 30 343 87 82 330 290 267 265 235 208 250 252 236 209 208 218
163 170 141 147 141 145 120 122 132 119 171 151 131 147 178 326 20 21 22 55 68 94 19 351 64 62 111 147 158 80 77 212 320 298 290 227 220 216 240 240 245 247 246
169 163 155 138 160 155 165 141 142 133 155 175 178 162 145 158 349 23 333 353 0 35 343 1 72 88 6 165 180 148 192 226 256 217 229 222 224 228 233 249 250 251 250
154 166 160 151 160 166 173 153 176 250 210 186 185 191 188 235 15 355 26 49 354 326 339 21 100 103 186 186 194 149 177 229 245 248 254 223 230 281 256 268 255 248 250
163 169 168 167 167 167 168 172 276 262 185 190 208 195 184 179 229 288 299 321 338 337 344 5 21 25 340 307 169 284 279 302 340 243 210 179 214 300 290 247 244 241 244
166 169 172 178 173 167 181 188 190 231 192 314 225 212 196 201 218 294 328 316 315 353 344 336 340 333 333 321 317 310 315 321 44 182 174 236 309 263 236 233 225 232 233
168 171 178 191 175 170 183 198 217 254 260 11 50 148 189 210 242 238 325 326 356 2 8 351 338 329 309 311 328 332 308 309 15 30 5 332 321 274 244 241 228 222 234
174 178 185 184 171 172 178 197 222 120 198 113 317 271 253 255 257 320 304 300 314 327 335 333 345 290 326 333 328 323 335 310 302 326 327 332 332 319 270 276 243 236 240
176 180 186 164 171 179 186 213 210 193 231 157 125 47 313 238 287 295 291 305 298 295 312 313 334 324 316 319 318 315 333 279 308 307 317 326 319 318 315 294 298 269 254
177 180 179 183 182 191 194 216 217 211 172 83 69 83 45 276 352 279 308 321 307 319 303 307 322 320 323 321 318 312 318 321 299 319 298 306 316 309 318 321 313 304 307
175 185 191 189 192 193 204 209 207 211 107 348 44 53 72 350 288 18 339 311 280 284 317 319 318 318 323 315 308 306 305 306 313 281 302 304 309 308 307 310 313 320 318
177 183 179 178 185 186 192 216 229 209 121 121 87 5 50 34 357 15 310 309 325 307 312 318 312 310 306 302 299 298 295 286 289 291 282 302 300 307 297 297 297 301 305